CZ-6A DEB, 56601

Orbit data source: Space-Track

CZ-6A DEB, 56601 is space debris in SSO originally from a launch on Fri, 11 Nov 2022 UTC launched from the Taiyaun Space Center, China (TSC). Debris objects in space refer to the collection of defunct objects orbiting the Earth. Examples of debris include non-operational satellites, rocket bodies, and fragments generated from explosions, collisions, or faulty payload assembly.

Loading next visibility...
Identifier
56601, 2022-151ADZ
Orbit
SSO
Country
Flag of CNCN / PRC
Related business
Manufacturer
SAST
Mission
Spacecraft
Bus & Motor
Unknown
Mass
Unknown
Launch date (UTC)
2022-11-11 (3 years ago)
Launch vehicle
Unknown
Launch site
Taiyaun Space Center, China (TSC)
Object type
Payload
Rocket body
Debris
Shape & HBR
Unknown shape, 0.1 m
Radar Cross Section
Small (<0.1 m²)

Expand to show TLE details & history
Last TLE update: 2 days ago

TLE from 2 days ago
0 CZ-6A DEB
1 56601U 22151ADZ 25351.28012292  .00000605  00000-0  21653-3 0  9992
2 56601  98.6134   7.5780 0113544 219.9700 139.3087 14.34112188138594
Epoch: 2025-12-17T06:43Z
TLE epoch observation values (Epoch: 2025-12-17T06:43:22.620Z)
Latitude
0.00006°
Longitude
-179.41851°
Altitude
842.964 km
Speed
7.399 km/s
True Right ascension
00h 30m 18s
True Declination
0° 00' 00"
Sunlit
Object was in daylight at epoch
Visualization orbit readout
Latitude
Unknown
Longitude
Unknown
Altitude
Unknown
Speed
Unknown
Apparent Right ascension
Unknown
Apparent Declination
Unknown
Sunlit
N/A
Visualization observer readout
Local Sidereal Time
11:53:12
Azimuth
Unknown
Elevation
Unknown
Doppler factor
Unknown
Orbital elements
Apogee altitude
856.374 km
Perigee altitude
693.932 km
Semi-major axis
7,153.29 km
Eccentricity
0.01135
Inclination
98.6134°
RAAN
7.578°
Arg. of periapsis
219.97°
True anomaly
140.14794°
Mean anomaly
139.3087°
Eccentric anomaly
139.72922°
Mean motion
3.58744 °/min
Orbital period
100.35 mins
BSTAR
0.00021653
Loading maneuver chart data...
Computing Atmospheric mass density...
Loading historical data...
Loading historical data...
Loading historical data...
Loading historical data...
Loading historical data...
Loading historical data...
Loading historical data...

Documentation

Showing up to 5 results
|